Погода в Красногородске

Россия / Псковская область     56°49′49″N   28°16′58″E
В апреле 2022 года жителям России запретили посещать сайт meteo.paraplan.net по решению Генеральной прокуратуры. Аудитория сайта уменьшилась в 10 раз. Владельцы сайта не видят смысла в поддержке погодного сервера в таких условиях. Сайт будет закрыт в октябре.
темп.,
°C
ветер,
м/с
пор.,
м/с
влажн.,
%
обл.,
%
осадки,
мм/ч
давл.,
гПа
погр.,
м
30 сентября, пт
пт3000:00+5ююз25965 0.0 100697
03:00+5ююз24973 0.0 100886
06:00+4ююз24975 0.0 100972
09:00+7ююз39903 0.0 1010245
12:00+11юз477423 0.0 1012749
15:00+13зюз465749 0.0 10131442
18:00+10сз24745 0.0 1014123
21:00+6ююз118815 0.0 101510
1 октября, сб
сб100:00+6ю1289100 0.0 101625
03:00+7ююв2287100 0.0 101638
06:00+6юв2392100 0.0 101547
09:00+7вюв1482100 0.0 1015129
12:00+11всв2269100 0.0 1013635
15:00+11в2372100 0.1 1012661
18:00+9юв1191100 0.8 101116
21:00+7юз119435 1.0 101110
2 октября, вс
вс200:00+6з11955 0.0 101110
03:00+4з11956 0.0 101110
06:00+4ююз119584 0.0 101010
09:00+6вюв1190100 0.0 101072
12:00+10ююв1277100 0.0 1010432
15:00+11вюв1170100 0.0 1009678
18:00+8в1181100 0.0 100914
21:00+6всв1192100 0.0 100910
3 октября, пн
пн300:00+6всв1192100 0.0 100916
03:00+5с1294100 0.0 100923
06:00+4ссз2396100 0.0 100857
09:00+6с258696 0.0 1007218
12:00+10ссз4663100 0.0 1006695
15:00+11ссз4755100 0.0 10051131
18:00+9ссз3766100 0.0 1004438
21:00+5сз288571 0.0 1004228
4 октября, вт
вт400:00+3зсз39946 0.0 1003218
03:00+5з3987100 0.0 1003298
06:00+5з41085100 0.1 1003465
09:00+7з41078100 0.1 1003605
12:00+10зюз5965100 0.1 1005877
15:00+11зюз5964100 0.3 10061262
18:00+9зюз41085100 0.8 1007591
21:00+9з41089100 1.7 1009536